#timestamp,LO_Frequency,Hit,StdDev 
1512392415.4,286046996.7,N
1512392435.3,286046999.0,N
1512392455.1,286046994.9,N
1512392456.0,286046994.9,N
1512392475.8,286046996.4,N
1512392495.7,286046993.9,N
1512392515.5,286046994.5,N
1512392535.3,286046992.3,N
1512392555.2,286046991.9,N
1512392575.0,286047000.7,N
1512392575.9,286047000.7,N
1512392595.8,286046997.7,N
1512392615.6,286046997.2,N
1512392635.4,286047012.2,N
1512392655.3,286047006.8,N
1512392675.1,286047008.8,N
1512392695.8,286047009.1,N
1512392715.7,286047012.3,N
1512392735.5,286047010.8,N
1512392755.4,286047003.5,N
1512392775.2,286047001.9,N
1512392795.0,286047000.9,N
1512392795.9,286047000.9,N
1512392815.8,286046999.2,N
1512392835.6,286047005.8,N
1512392855.5,286047015.6,N
1512392875.3,286047021.7,Y
1512392895.1,286047021.2,P
1512392915.9,286047020.0,N
1512392935.7,286047013.7,N
1512392955.5,286047008.4,N
1512392975.4,286047006.5,N
1512392995.2,286047007.3,N
1512393015.1,286047004.0,N
1512393016.0,286047004.0,N
1512393035.8,286047004.2,N
1512393085.6,286047019.1,E
1512393095.6,286047012.3,N
1512393115.4,286046994.7,P
1512393135.2,286047001.7,N
1512393155.1,286046997.0,N
1512393156.0,286046997.0,N
1512393175.8,286046988.9,N
1512393195.6,286046988.6,N
1512393215.5,286047000.6,N
1512393235.3,286046998.8,N
1512393255.2,286047005.7,N
1512393275.9,286047006.6,N
1512393295.7,286046998.5,N
1512393315.6,286047004.2,N
1512393335.4,286047002.0,N
1512393355.2,286046997.7,N
1512393375.1,286046990.3,N
1512393376.0,286046990.3,N
1512393395.8,286046986.2,N
1512393415.7,286046986.6,N
1512393435.5,286046991.7,N
1512393455.3,286046991.8,N
1512393475.2,286046991.1,N
1512393495.0,286046994.6,N
1512393495.9,286046994.6,N
1512393515.8,286046989.8,N
1512393535.6,286046991.5,N
1512393555.4,286046985.5,N
1512393575.3,286046990.2,N
1512393595.1,286046994.4,N
1512393615.8,286046995.6,N
1512393635.7,286046991.5,N
1512393655.5,286046992.1,N
1512393675.3,286046987.7,N
1512393695.2,286047000.2,N
1512393715.0,286046993.3,N
1512393715.9,286046993.3,N
1512393735.8,286046993.6,N
1512393755.6,286046997.7,N
1512393775.4,286046995.5,N
1512393795.3,286047004.4,N
1512393815.1,286047002.7,N
1512393835.9,286047000.8,N
1512393855.7,286047006.7,N
1512393875.5,286047008.4,N
1512393895.4,286047004.3,N
1512393915.2,286047001.1,N
1512393935.0,286047005.6,N
1512393935.9,286047005.6,N
1512393955.8,286047007.0,N
1512393975.6,286047006.7,N
1512393995.5,286047001.8,N
1512394015.3,286047000.9,N
1512394035.1,286047001.9,N
1512394055.9,286047000.0,N
1512394075.7,286047006.4,N
1512394095.5,286047018.0,N
1512394115.4,286047021.3,Y
1512394135.2,286047019.5,P
1512394155.1,286047024.2,N
1512394156.0,286047024.2,N
1512394175.8,286047022.3,N
1512394195.6,286047020.2,N
1512394215.5,286047015.6,N
1512394235.3,286047016.1,N
1512394255.1,286047018.3,N
1512394275.9,286047022.6,Y
1512394295.7,286047008.6,P
1512394315.6,286047013.8,N
1512394335.4,286047009.1,N
1512394355.2,286047009.5,N
1512394375.1,286047008.4,N
1512394376.0,286047008.4,N
1512394395.8,286047008.4,N
1512394415.6,286047009.0,N
1512394435.5,286047000.5,N
1512394455.3,286047004.0,N
1512394475.2,286047008.7,N
1512394495.9,286047012.6,Y
1512394515.7,286046998.4,P
1512394535.6,286046999.2,N
1512394555.4,286047004.7,N
1512394575.2,286047003.0,N
1512394595.1,286046997.1,N
1512394596.0,286046997.1,N
1512394615.8,286046996.3,N
1512394635.7,286046988.5,N
1512394655.5,286046991.7,N
1512394675.3,286047001.0,N
1512394695.2,286046998.4,N
1512394715.0,286046997.8,N
1512394715.9,286046997.8,N
1512394735.7,286047002.0,N
1512394755.6,286047009.8,N
1512394775.4,286047002.2,N
1512394795.3,286046995.9,N
1512394815.1,286047000.0,N
1512394816.0,286047000.0,N
1512394835.8,286047006.6,N
1512394855.7,286047010.5,N
1512394875.5,286047011.0,N
1512394895.3,286047006.6,N
1512394915.2,286047008.8,N
1512394935.0,286047015.5,N
1512394935.9,286047015.5,N
1512394955.8,286047013.3,N
1512394975.6,286047011.4,N
1512394995.4,286047012.8,N
1512395015.3,286047016.2,N
1512395035.1,286047019.8,N
1512395055.8,286047012.8,N
1512395075.7,286047015.4,N
1512395095.5,286047013.2,N
1512395115.4,286047016.6,N
1512395135.2,286047011.2,N
1512395155.0,286047011.7,N
1512395155.9,286047011.7,N
1512395175.8,286047007.5,N
1512395195.6,286047007.7,N
1512395215.5,286047006.2,N
1512395235.3,286046996.9,N
1512395255.1,286046998.7,N
1512395275.9,286046998.4,N
1512395295.7,286046997.6,N
1512395315.5,286046999.8,N
1512395335.4,286046993.8,N
1512395355.2,286046992.6,N
1512395375.1,286046994.2,N
1512395376.0,286046994.2,N
1512395395.8,286046990.3,N
1512395415.6,286046984.4,N
1512395435.5,286046988.0,N
1512395455.3,286046997.8,N
1512395475.1,286046997.9,N
1512395495.9,286046989.5,N
1512395515.7,286046983.4,N
1512395535.6,286046982.0,N
1512395555.4,286046989.7,N
1512395575.2,286046987.2,N
1512395595.1,286046991.7,N
1512395596.0,286046991.7,N
1512395615.8,286046989.0,N
1512395635.6,286046987.6,N
1512395655.5,286046993.1,N
1512395675.3,286046998.3,N
1512395695.2,286047005.0,N
1512395715.9,286047005.5,N
1512395735.7,286047010.6,N
1512395755.6,286047006.1,N
1512395775.4,286047010.1,N
1512395795.2,286047016.9,N
1512395815.1,286047012.0,N
1512395816.0,286047012.0,N
1512395835.8,286047008.0,N
1512395855.7,286047004.1,N
1512395875.5,286047002.0,N
1512395895.3,286047002.0,N
1512395915.2,286047002.9,N
1512395935.0,286047010.5,N
1512395935.9,286047010.5,N
1512395955.8,286047008.8,N
1512395975.6,286047008.1,N
1512395995.4,286047004.6,N
